User: anonymous   Login
Location: Amarillo Post Office Jordan Station
(35.1907°N, 101.9342°W)
Time: 00:37:57
(UTC+00:00)
Language:

FALCON 9 DEB - Orbit

View from above orbital plane
View from above orbital plane
View from above satellite
View from above satellite

Ground track
Ground track

The orbit data is extracted from the following two-line orbital elements,

1 46084U 20055BK  21102.16924422  .00009758  00000-0  11304-3 0  9991
2 46084  53.0128 163.5150 0014035  33.0669 327.1219 15.62489927 43290
Epoch (UTC): 12 April 2021 04:03:42
Eccentricity: 0.0014035
inclination: 53.0128°
perigee height: 371 km
apogee height: 390 km
right ascension of ascending node: 163.5150°
argument of perigee: 33.0669°
revolutions per day: 15.62489927
mean anomaly at epoch: 327.1219°
orbit number at epoch: 4329

The dashed part of the orbit path shows where the satellite is in the earth's shadow,  

DLR